[[{"header":{"parameterUnit":"m.s-1","parameterCategory":1,"la1":30.2991,"la2":30.254,"lo1":-89.0895,"lo2":-89.0444,"dy":0.0017,"dx":0.0017,"nx":28,"ny":28,"refTime":"2024-06-15T09:00:00:Z","depth":0,"parameterNumber":2,"parameterNumberName":"U-component_of_WINDS"},"data":[0,0,0,0,0,0,0,0,0,0,0,0,0,0,0,0,0,0,0,0,0,0,0,0,0,0,0,0,0,0,0,0,0,0,0,0,0,0,0,0,0,0,0,0,0,0,0,0,0,0,0,0,0,0,0,0,0,0,-1.3202,-1.3202,0,-1.3222,-1.3223,-1.3223,-1.3183,-1.3182,-1.3181,-1.3179,-1.3199,-1.3201,-1.3203,0,0,0,0,0,0,0,0,0,0,0,0,0,-1.3127,-1.3129,-1.3202,-1.3202,-1.3202,-1.3222,-1.3223,-1.3223,-1.3184,-1.3182,-1.318,-1.3179,-1.3199,-1.3201,-1.3203,0,0,0,0,0,0,0,0,0,0,0,0,0,-1.3155,-1.3129,-1.3202,-1.3185,-1.3184,-1.3222,-1.3223,-1.3223,-1.3184,-1.3182,-1.318,-1.3178,-1.3198,-1.3201,-1.3203,-1.3258,0,0,-1.3211,-1.3212,0,0,0,0,0,0,0,0,-1.3153,-1.3157,-1.3187,-1.3186,-1.3185,-1.3198,-1.3203,-1.3235,-1.3184,-1.3184,-1.3179,-1.3177,-1.32,-1.3203,-1.3211,-1.3259,-1.326,-1.3211,-1.3213,-1.3214,-1.3215,0,0,0,0,0,0,0,-1.3151,-1.3156,-1.321,-1.3188,-1.3186,-1.3176,-1.3178,-1.3209,-1.3203,-1.3184,-1.3181,-1.3184,-1.3199,-1.3208,-1.3211,-1.326,-1.3211,-1.3214,-1.3215,-1.3216,-1.3356,-1.3358,0,0,0,0,0,0,-1.3152,-1.3155,-1.3209,-1.321,-1.3164,-1.3179,-1.3181,-1.3196,-1.3202,-1.3201,-1.3186,-1.3182,-1.3205,-1.3208,-1.3212,-1.3277,-1.3214,-1.3217,-1.3218,-1.3354,-1.3356,-1.3358,0,0,0,0,0,0,-1.315,-1.3157,-1.3208,-1.3182,-1.3188,-1.3182,-1.3199,-1.3197,-1.3206,-1.3204,-1.3202,-1.3196,-1.3204,-1.3208,-1.3247,-1.3277,-1.3218,-1.322,-1.3351,-1.3354,-1.3357,-1.3409,0,0,0,0,0,0,-1.3148,-1.3157,-1.3178,-1.3183,-1.3189,-1.3244,-1.3201,-1.3199,-1.3211,-1.3207,-1.3213,-1.3212,-1.3202,-1.3244,-1.325,-1.328,-1.3222,-1.3348,-1.3353,-1.3356,-1.3404,-1.3413,-1.3421,0,0,0,0,0,-1.3146,-1.3191,-1.3179,-1.3186,-1.3216,-1.3246,-1.325,-1.3237,-1.3214,-1.3235,-1.3233,-1.3212,-1.3273,-1.3248,-1.3255,-1.3286,-1.3346,-1.3351,-1.3356,-1.34,-1.3411,-1.3421,0,0,0,0,0,0,-1.3189,-1.3191,-1.3178,-1.3226,-1.3236,-1.3239,-1.3265,-1.3249,-1.3266,-1.3261,-1.3245,-1.3246,-1.3289,-1.3291,-1.3263,-1.334,-1.3306,-1.3312,-1.3337,-1.3347,-1.3356,-1.3354,-1.3224,0,0,0,0,0,-1.3204,-1.3229,-1.3229,-1.3272,-1.3278,-1.3271,-1.3283,-1.3273,-1.3283,-1.3287,-1.3288,-1.3298,-1.3319,-1.3333,-1.3352,-1.3404,-1.3405,-1.3429,-1.3437,-1.3444,-1.345,-1.3478,-1.3489,-1.3374,-1.3374,-1.3374,0,0,-1.3236,-1.324,-1.3256,-1.3281,-1.3287,-1.3313,-1.3275,-1.3303,-1.3322,-1.3291,-1.3328,-1.333,-1.3339,-1.3385,-1.3406,-1.3388,-1.3482,-1.345,-1.3456,-1.3458,-1.3484,-1.3495,-1.3504,-1.3378,-1.3377,-1.3376,0,0,-1.3306,-1.3312,-1.3349,-1.3356,-1.3367,-1.3362,-1.3371,-1.3376,-1.3376,-1.3414,-1.3391,-1.3413,-1.345,-1.3458,-1.3467,-1.3541,-1.3523,-1.3548,-1.3591,-1.3619,-1.3628,-1.3636,-1.3663,-1.3673,-1.3554,-1.3554,-1.3554,0,-1.3344,-1.3383,-1.3369,-1.34,-1.3411,-1.3385,-1.3421,-1.3429,-1.3445,-1.3454,-1.3434,-1.348,-1.3485,-1.3533,-1.3551,-1.3559,-1.3568,-1.3547,-1.3628,-1.3636,-1.3643,-1.3669,-1.3679,-1.3557,-1.3556,-1.3556,-1.3556,0,-1.3429,-1.3456,-1.3484,-1.3501,-1.3515,-1.3549,-1.354,-1.3557,-1.3545,-1.3543,-1.3581,-1.3586,-1.3606,-1.3616,-1.3605,-1.3663,-1.3652,-1.3631,-1.3596,-1.3657,-1.3681,-1.3691,-1.3561,-1.356,-1.3559,-1.3558,0,0,-1.3527,-1.3537,-1.3548,-1.3556,-1.3566,-1.3586,-1.3618,-1.3638,-1.3653,-1.3665,-1.3692,-1.3724,-1.3704,-1.3714,-1.3704,-1.3728,-1.3788,-1.3703,-1.3703,-1.372,-1.3852,-1.3869,-1.3881,-1.3775,-1.3777,-1.3778,-1.3852,0,-1.3598,-1.3655,-1.3644,-1.3698,-1.3723,-1.3699,-1.3727,-1.3736,-1.3734,-1.3755,-1.3753,-1.3776,-1.3748,-1.3754,-1.3777,-1.3776,-1.3814,-1.377,-1.38,-1.3801,-1.3799,-1.3893,-1.391,-1.3979,-1.3861,-1.3862,-1.3863,0,-1.3688,-1.3705,-1.3763,-1.3769,-1.3779,-1.3805,-1.3823,-1.3843,-1.3853,-1.385,-1.3862,-1.3847,-1.3879,-1.3843,-1.3887,-1.3858,-1.3869,-1.3871,-1.3873,-1.3876,-1.3837,-1.3899,-1.4001,-1.4011,-1.3878,-1.3877,-1.3876,0,-1.3755,-1.3792,-1.3831,-1.3838,-1.3847,-1.3866,-1.387,-1.3878,-1.3891,-1.3906,-1.3915,-1.3934,-1.3944,-1.3959,-1.395,-1.3925,-1.3996,-1.3959,-1.3994,-1.3995,-1.4011,-1.401,-1.4117,-1.4017,-1.4017,-1.4017,-1.4017,0,-1.3836,-1.3872,-1.3861,-1.3886,-1.3926,-1.3913,-1.3953,-1.3954,-1.3961,-1.3985,-1.3965,-1.3987,-1.3973,-1.3995,-1.3988,-1.4026,-1.403,-1.4029,-1.4027,-1.4032,-1.4032,-1.4039,-1.4035,-1.402,-1.4019,-1.4019,-1.4018,0,-1.3918,-1.3912,-1.3953,-1.3958,-1.396,-1.399,-1.3994,-1.4016,-1.4013,-1.4044,-1.405,-1.4046,-1.407,-1.4062,-1.4088,-1.4084,-1.4132,-1.4123,-1.4129,-1.4127,-1.4163,-1.416,-1.4279,-1.4294,-1.4184,-1.4185,-1.4186,0,-1.397,-1.3997,-1.4006,-1.402,-1.4027,-1.4051,-1.4064,-1.4052,-1.4067,-1.4081,-1.4102,-1.4125,-1.4143,-1.4183,-1.4182,-1.4202,-1.4194,-1.4234,-1.4197,-1.4201,-1.4195,-1.4194,-1.4197,-1.4242,-1.4243,-1.4244,-1.4245,0,-1.4063,-1.4059,-1.4079,-1.41,-1.4116,-1.4131,-1.4144,-1.4157,-1.4146,-1.4164,-1.4189,-1.4203,-1.4231,-1.4254,-1.4272,-1.4276,-1.4259,-1.4257,-1.4266,-1.4271,-1.4274,-1.4274,-1.415,-1.4254,-1.4253,-1.4252,-1.4252,-1.4252,-1.4132,-1.4156,-1.4165,-1.4189,-1.4198,-1.4211,-1.4232,-1.4232,-1.4253,-1.4275,-1.4267,-1.4296,-1.4305,-1.4328,-1.4335,-1.4358,-1.4342,-1.4355,-1.4359,-1.4362,-1.4368,-1.427,-1.4361,-1.436,-1.436,-1.436,-1.436,0,-1.4225,-1.423,-1.4252,-1.4271,-1.429,-1.4273,-1.4286,-1.4303,-1.4329,-1.434,-1.4358,-1.4387,-1.441,-1.441,-1.4432,-1.445,-1.4442,-1.4456,-1.4454,-1.4456,-1.438,-1.437,-1.4461,-1.4461,-1.4461,-1.4461,-1.4461,-1.4461,-1.4275,-1.4315,-1.4312,-1.4356,-1.436,-1.4389,-1.4399,-1.441,-1.4419,-1.4453,-1.4472,-1.4472,-1.4479,-1.45,-1.452,-1.452,-1.4529,-1.4545,-1.4542,-1.4471,-1.4461,-1.4451,-1.4442,-1.4547,-1.4547,-1.4616,-1.4617,-1.4618]},{"header":{"parameterUnit":"m.s-1","parameterCategory":1,"la1":30.2991,"la2":30.254,"lo1":-89.0895,"lo2":-89.0444,"dy":0.0017,"dx":0.0017,"nx":28,"ny":28,"refTime":"2024-06-15T09:00:00:Z","depth":0,"parameterNumber":3,"parameterNumberName":"V-component_of_WINDS"},"data":[0,0,0,0,0,0,0,0,0,0,0,0,0,0,0,0,0,0,0,0,0,0,0,0,0,0,0,0,0,0,0,0,0,0,0,0,0,0,0,0,0,0,0,0,0,0,0,0,0,0,0,0,0,0,0,0,0,0,-0.4297,-0.4297,0,-0.4345,-0.4345,-0.4346,-0.4334,-0.4333,-0.4332,-0.4331,-0.4382,-0.4385,-0.4387,0,0,0,0,0,0,0,0,0,0,0,0,0,-0.4197,-0.4199,-0.4296,-0.4297,-0.4298,-0.4345,-0.4345,-0.4346,-0.4334,-0.4333,-0.4332,-0.4331,-0.4382,-0.4384,-0.4387,0,0,0,0,0,0,0,0,0,0,0,0,0,-0.4242,-0.4199,-0.4296,-0.4297,-0.4298,-0.4344,-0.4345,-0.4346,-0.4335,-0.4333,-0.4332,-0.433,-0.4381,-0.4384,-0.4387,-0.4436,0,0,-0.4398,-0.4399,0,0,0,0,0,0,0,0,-0.424,-0.4246,-0.4297,-0.4298,-0.4298,-0.4332,-0.4329,-0.4376,-0.4335,-0.4321,-0.4331,-0.433,-0.4367,-0.4371,-0.4383,-0.4438,-0.4441,-0.4398,-0.44,-0.4401,-0.4402,0,0,0,0,0,0,0,-0.4236,-0.4244,-0.4316,-0.4297,-0.4298,-0.4296,-0.4301,-0.4338,-0.4351,-0.4322,-0.4321,-0.4327,-0.4367,-0.438,-0.4385,-0.4441,-0.4398,-0.4401,-0.4403,-0.4404,-0.4541,-0.4542,0,0,0,0,0,0,-0.4232,-0.4241,-0.4314,-0.4317,-0.4265,-0.4299,-0.4305,-0.4323,-0.4351,-0.4354,-0.4328,-0.4326,-0.4375,-0.4381,-0.4386,-0.4447,-0.4401,-0.4404,-0.4406,-0.4539,-0.4541,-0.4543,0,0,0,0,0,0,-0.423,-0.4239,-0.4312,-0.4279,-0.4288,-0.4303,-0.4323,-0.4324,-0.4337,-0.4355,-0.4358,-0.4339,-0.4374,-0.4382,-0.4424,-0.4448,-0.4406,-0.4409,-0.4537,-0.454,-0.4542,-0.4567,0,0,0,0,0,0,-0.4227,-0.4238,-0.4256,-0.4279,-0.429,-0.4348,-0.4324,-0.4326,-0.4343,-0.4341,-0.4366,-0.4369,-0.4374,-0.4419,-0.4427,-0.4452,-0.4412,-0.4535,-0.4538,-0.4541,-0.4564,-0.457,-0.4575,0,0,0,0,0,-0.4224,-0.4261,-0.4257,-0.4266,-0.4313,-0.435,-0.4356,-0.436,-0.4345,-0.4364,-0.4376,-0.4368,-0.4444,-0.4424,-0.4433,-0.4459,-0.4534,-0.4537,-0.4541,-0.4561,-0.4568,-0.4575,0,0,0,0,0,0,-0.4241,-0.4264,-0.426,-0.4306,-0.4326,-0.4348,-0.4372,-0.4367,-0.4392,-0.4389,-0.4394,-0.44,-0.4444,-0.4455,-0.4432,-0.4508,-0.4487,-0.4492,-0.4499,-0.4506,-0.4511,-0.4508,-0.4414,0,0,0,0,0,-0.425,-0.4278,-0.4297,-0.4336,-0.4346,-0.4357,-0.4373,-0.4375,-0.4396,-0.4405,-0.4419,-0.4441,-0.4469,-0.4488,-0.4515,-0.4565,-0.4571,-0.4588,-0.4593,-0.4597,-0.4603,-0.4631,-0.4639,-0.4555,-0.4555,-0.4555,0,0,-0.4269,-0.4286,-0.4303,-0.4339,-0.4355,-0.4385,-0.4364,-0.4396,-0.4418,-0.4409,-0.4451,-0.4462,-0.4487,-0.4533,-0.4555,-0.4544,-0.4627,-0.4602,-0.4605,-0.4608,-0.4636,-0.4644,-0.4651,-0.4557,-0.4557,-0.4556,0,0,-0.432,-0.4334,-0.4369,-0.4385,-0.4409,-0.4416,-0.4424,-0.4447,-0.4455,-0.4496,-0.449,-0.4517,-0.4566,-0.4584,-0.4599,-0.4658,-0.4653,-0.4666,-0.4695,-0.4723,-0.473,-0.4736,-0.4758,-0.4766,-0.4671,-0.4671,-0.4671,0,-0.4341,-0.4384,-0.4387,-0.442,-0.4437,-0.443,-0.4466,-0.4481,-0.4513,-0.4526,-0.4513,-0.4575,-0.4591,-0.4643,-0.4657,-0.4669,-0.468,-0.4664,-0.4728,-0.4735,-0.474,-0.4762,-0.477,-0.4673,-0.4673,-0.4672,-0.4672,0,-0.441,-0.444,-0.4466,-0.4496,-0.4516,-0.455,-0.4559,-0.4579,-0.4579,-0.4588,-0.4631,-0.4649,-0.4681,-0.4693,-0.4693,-0.4745,-0.4738,-0.4727,-0.4706,-0.475,-0.477,-0.4778,-0.4675,-0.4675,-0.4674,-0.4674,0,0,-0.4473,-0.4505,-0.4515,-0.4529,-0.4555,-0.4579,-0.4614,-0.4644,-0.4662,-0.4684,-0.4714,-0.4756,-0.4746,-0.4764,-0.4766,-0.479,-0.4837,-0.4777,-0.4777,-0.4789,-0.4898,-0.4907,-0.4916,-0.4833,-0.4835,-0.4836,-0.4896,0,-0.4527,-0.4587,-0.4591,-0.4645,-0.4674,-0.4668,-0.4698,-0.4718,-0.4728,-0.4754,-0.4765,-0.4795,-0.4779,-0.479,-0.4814,-0.4826,-0.4859,-0.4822,-0.4863,-0.4864,-0.4858,-0.4926,-0.4936,-0.4992,-0.4904,-0.4905,-0.4906,0,-0.4598,-0.4622,-0.468,-0.4703,-0.4716,-0.4743,-0.4772,-0.4797,-0.482,-0.4825,-0.4845,-0.4844,-0.488,-0.4857,-0.4908,-0.4882,-0.4899,-0.4908,-0.491,-0.4915,-0.4889,-0.4935,-0.5009,-0.5018,-0.4918,-0.4917,-0.4916,0,-0.464,-0.4687,-0.4728,-0.4741,-0.4769,-0.4788,-0.4801,-0.4822,-0.484,-0.4866,-0.4878,-0.4908,-0.4924,-0.4947,-0.4955,-0.4937,-0.5006,-0.4983,-0.5013,-0.5013,-0.5029,-0.5028,-0.5108,-0.5037,-0.5037,-0.5037,-0.5036,0,-0.4701,-0.4737,-0.4748,-0.4773,-0.4814,-0.4818,-0.4858,-0.487,-0.4889,-0.4917,-0.4914,-0.494,-0.4948,-0.4976,-0.4982,-0.5024,-0.5031,-0.5038,-0.5039,-0.5039,-0.5038,-0.5051,-0.5048,-0.5039,-0.5038,-0.5038,-0.5038,0,-0.4755,-0.4764,-0.4809,-0.4831,-0.4838,-0.4867,-0.4887,-0.4912,-0.4921,-0.4957,-0.4965,-0.498,-0.5013,-0.5022,-0.5062,-0.5066,-0.5116,-0.5113,-0.5109,-0.5109,-0.5139,-0.5137,-0.5232,-0.5245,-0.5164,-0.5164,-0.5165,0,-0.4794,-0.4822,-0.4848,-0.4866,-0.488,-0.4909,-0.4928,-0.4934,-0.4954,-0.4983,-0.5005,-0.5037,-0.5064,-0.5118,-0.5132,-0.5163,-0.5162,-0.5193,-0.5166,-0.5166,-0.5164,-0.5163,-0.5167,-0.5198,-0.5199,-0.52,-0.5201,0,-0.4863,-0.4866,-0.4893,-0.4923,-0.4946,-0.4969,-0.4991,-0.5007,-0.5016,-0.5039,-0.5073,-0.5093,-0.5134,-0.5168,-0.5199,-0.5213,-0.5209,-0.5209,-0.5218,-0.5218,-0.5215,-0.5219,-0.5124,-0.5207,-0.5206,-0.5206,-0.5205,-0.5205,-0.4912,-0.4937,-0.4959,-0.499,-0.5008,-0.5029,-0.5054,-0.5066,-0.5094,-0.5128,-0.5129,-0.5167,-0.519,-0.5232,-0.5247,-0.5277,-0.5268,-0.528,-0.5284,-0.5287,-0.5291,-0.5209,-0.5283,-0.5283,-0.5282,-0.5282,-0.5282,0,-0.4982,-0.4996,-0.5025,-0.5056,-0.5081,-0.5074,-0.5099,-0.512,-0.5153,-0.5175,-0.5201,-0.5241,-0.5274,-0.529,-0.5323,-0.5344,-0.5343,-0.5352,-0.5352,-0.5355,-0.5296,-0.5286,-0.5352,-0.5352,-0.5352,-0.5352,-0.5352,-0.5352,-0.5022,-0.5064,-0.507,-0.5121,-0.5135,-0.5171,-0.5186,-0.5206,-0.5224,-0.5268,-0.5295,-0.5306,-0.5326,-0.536,-0.539,-0.5394,-0.5407,-0.5418,-0.5421,-0.5366,-0.5359,-0.5352,-0.5343,-0.542,-0.542,-0.5478,-0.5479,-0.5479]}]]